Regional Weather Roundup
Issued by NWS Wakefield, VA

Home | Current Version | Previous Version | Text Only | Print | Product List | Glossary Off
Versions: 1 2 3 4 5 6 7 8 9 10 11 12 13 14 15 16 17 18 19 20 21 22 23 24 25 26 27 28 29 30 31 32 33 34 35 36 37 38 39 40 41 42 43 44 45 46 47 48 49 50

000
ASUS41 KAKQ 031715
RWRAKQ

REGIONAL WEATHER ROUNDUP
NATIONAL WEATHER SERVICE WAKEFIELD VA
100 PM EDT SUN MAY 03 2015

Note: "fair" indicates few or no clouds below 12,000 feet with no
significant weather and/or obstructions to visibility. * = Denotes
station may not report precipitation (e.g., rain,snow,etc.),
thunder or fog.

VAZ042-051-052>054-056-031800-
NORTHERN VIRGINIA

CITY           SKY/WX    TMP DP  RH WIND       PRES   REMARKS
WASH NATIONAL  MOSUNNY   78  45  30 SE3       30.13S
DULLES         MOSUNNY   78  42  27 NW3       30.13F
FORT BELVOIR   MOSUNNY   78  40  26 VRB2      30.12F
QUANTICO       MOSUNNY   75  47  36 S6        30.13F
FREDERICKSBRG* MOSUNNY   80  41  24 W9        30.12F
STAFFORD*      MOSUNNY   75  38  25 NW3       30.17F
WARRENTON      CLOUDY    75  49  39 W7        30.14S
CULPEPER*      NOT AVBL
MANASSAS*      PTSUNNY   77  39  25 N5        30.13F
LEESBURG*      SUNNY     77  45  31 SW5G17    30.14S
WINCHESTER     MOSUNNY   77  32  19 SW7       30.13F
FRONT ROYAL*   CLOUDY    73  45  35 SE3       30.13F
LURAY*         FAIR      77  45  31 SE5       30.15F
$$

VAZ048-049-060>072-079>083-031800-
CENTRAL AND SOUTH CENTRAL VIRGINIA

CITY           SKY/WX    TMP DP  RH WIND       PRES   REMARKS
RICHMOND       PTSUNNY   78  36  21 VRB3      30.15S
CHESTERFIELD*  FAIR      79  39  24 NW7       30.16F
PETERSBURG*    PTSUNNY   79  33  18 SW7       30.16S
HANOVER        MOSUNNY   79  37  22 VRB5      30.16F
TAPPAHANNOCK*  SUNNY     77  31  18 CALM      30.14F
QUINTON*       CLOUDY    76  37  24 SW3       30.14F
CHARLOTTSVILLE MOSUNNY   76  40  27 VRB6      30.15S
GORDONSVILLE*  PTSUNNY   75  40  28 N5        30.14F
ORANGE*        PTSUNNY   77  43  29 W5        30.16S
LOUISA*        PTSUNNY   75  43  31 W8        30.14F
BUMPASS*       PTSUNNY   75  38  25 NW5       30.15S
FARMVILLE*     CLOUDY    77  40  25 N3        30.15F
CREWE*         FAIR      77  35  21 W3        30.16F
FORT PICKETT*  FAIR      77  38  24 SW5       30.16F
CHASE CITY*    PTSUNNY   78  43  28 SW3       30.17F
CLARKSVILLE*   FAIR      73  43  33 CALM      30.17F
SOUTH HILL*    MOSUNNY   76  41  29 CALM      30.23S
LAWRENCEVILLE* PTSUNNY   74  41  30 CALM      30.17S
EMPORIA*       PTSUNNY   73  41  31 SW3       30.18S
$$

VAZ088>098-031800-
SOUTHEAST VIRGINIA

CITY           SKY/WX    TMP DP  RH WIND       PRES   REMARKS
NORFOLK        SUNNY     77  43  29 VRB5      30.14F
VIRGINIA BEACH MOSUNNY   79  46  31 W8        30.14F
NORFOLK NAVAL  MOSUNNY   80  47  31 VRB6      30.16F
WEST POINT*    SUNNY     83  30  15 W10       30.15F
SALUDA*        FAIR      75  44  33 NW5       30.13F
NEWPORT NEWS   MOSUNNY   83  42  23 VRB5      30.14F
LANGLEY AFB    MOSUNNY   78  46  32 W7        30.13S
FORT EUSTIS    SUNNY     77  46  33 W6        30.13F
WILLIAMSBURG*  MOSUNNY   84  46  26 W9        30.15F
HR EXEC AP*    FAIR      79  46  31 NW5       30.16F
FRANKLIN*      CLOUDY    75  43  31 W3        30.16F
WAKEFIELD      PTSUNNY   79  41  25 S5        30.15F
$$

VAZ020-022-025-037-045-031800-
WEST CENTRAL AND SOUTHWEST VIRGINIA

CITY           SKY/WX    TMP DP  RH WIND       PRES   REMARKS
STAUNTON*      SUNNY     74  37  26 W7        30.19S
WAYNESBORO*    FAIR      71  38  30 CALM      30.18F
HOT SPRINGS VA PTSUNNY   61  30  30 SE5       30.23F
LYNCHBURG      MOSUNNY   73  37  27 NE3       30.19F
DANVILLE       SUNNY     76  40  27 SW8       30.18F
SOUTH BOSTON*  PTSUNNY   75  37  24 W6        30.17F
MARTINSVILLE   MOSUNNY   77  39  25 SW3       30.20F
ROANOKE        PTSUNNY   72  37  28 VRB6      30.20F
BLACKSBURG     MOSUNNY   67  36  31 N5        30.25S
DUBLIN*        MOSUNNY   71  35  26 SW3       30.23F
MARION*        MOSUNNY   69  39  33 W7        30.23F
HILLSVILLE*    MOSUNNY   68  40  35 W7        30.22F
RICHLANDS*     FAIR      66  30  26 SW3       30.22F
WISE*          MOSUNNY   70  32  24 E6        30.22F
ABINGDON*      SUNNY     72  36  27 W6        30.20F
$$

MDZ021>025-VAZ099-100-031800-
SOUTHERN MARYLAND AND THE DELMARVA PENINSULA

CITY           SKY/WX    TMP DP  RH WIND       PRES   REMARKS
PATUXENT RIVER MOSUNNY   74  50  42 NE6       30.12F
BAY BRIDGE APT   N/A    N/A N/A N/A W5        30.12F
LEONARDTOWN    SUNNY     77  36  22 N6        30.14S
DOVER          SUNNY     72  51  47 VRB2      30.09S
GEORGETOWN     SUNNY     76  47  35 E8        30.11F
EASTON         SUNNY     77  46  33 N6        30.15F
CAMBRIDGE      SUNNY     77  46  33 N6        30.11F
SALISBURY      SUNNY     77  44  30 NW9       30.10F
OCEAN CITY     SUNNY     64  53  67 S5        30.12S
WALLOPS ISLAND SUNNY     76  48  37 W8        30.12S
ACCOMACK*      SUNNY     72  46  40 NW8       30.13F
$$

NCZ012>017-030>032-031800-
NORTH CENTRAL AND EASTERN NORTH CAROLINA

CITY           SKY/WX    TMP DP  RH WIND       PRES   REMARKS
ROANOKE RAPIDS FAIR      72  43  35 NW3       30.17F
RALEIGH        MOSUNNY   75  44  33 SW3       30.19F
ELIZABETH CITY SUNNY     77  48  35 VRB7      30.16F
AHOSKIE*       MOSUNNY   76  42  30 CALM      30.17F
EDENTON*       SUNNY     76  52  42 W3        30.18S
CURRITUCK*     PTSUNNY   77  44  31 NW5       30.16F
KILL DEVIL HLS SUNNY     71  53  52 W6        30.17S
MANTEO         SUNNY     73  50  44 NW9       30.18S
CAPE HATTERAS  SUNNY     66  55  67 W8        30.19S
TARBORO*       FAIR      77  48  36 W5        30.19F
GOLDSBORO      SUNNY     76  48  37 VRB5      30.17F
WASHINGTON     SUNNY     75  46  36 W3        30.19F
GREENVILLE     SUNNY     75  45  33 CALM      30.20F
NEW BERN       SUNNY     79  42  26 CALM      30.20S
WILMINGTON     SUNNY     77  38  24 S12       30.20S
$$

VAZ048-031800-
ELSEWHERE

CITY           SKY/WX    TMP DP  RH WIND       PRES   REMARKS
HARRISBURG PA  MOSUNNY   77  37  23 NW7       30.09F
BALTIMORE      MOSUNNY   78  43  28 VRB5G17   30.10F
ANNAPOLIS      MOSUNNY   67  52  58 SE12      30.11F
ANDREWS AFB    SUNNY     77  40  25 NW10      30.12F
PHILADELPHIA   MOSUNNY   76  39  26 E5        30.10F
HENDERSON NC     N/A     76  37  25 SW6       30.18F
GREENSBORO     PTSUNNY   74  42  31 VRB5      30.19F
ROCKY MOUNT    SUNNY     77  50  38 W7        30.19S
$$

VAZ100-031800-
MARINE

STATION/POSITION TIME  TEMP    WIND        PRES    WAVE   SWELL
                       AIR SEA DIR/SP/G            HT/PER HT/PER
                 (UTC) (F)     (DEG/KT/KT) (MB)    (FT/S) (FT/S)
BRANDYWINE LGT   1612          320/  4/  5 1020.3R
CAPE MAY NJ      1600   56 58  290/  6/  7 1019.8R
LEWES DE         1600   56 53  340/  4/  6 1020.1R
15NM E FENWICK I 1650   51 50              1019.9S   4/ 9
OCEAN-CITY-INLET 1600          180/  6/  8   N/A
WACHAPREAGUE VA  1600   76 61  280/  1/  7 1020.3R
THOMAS POINT MD  1700   65 58  140/  8/  8 1020.3F
GOOSES REEF MD   1700   65 62                N/A     0
COVE POINT MD    1600   63     360/  3/  4 1021.1R
SOLOMONS ISLAND  1600      59                N/A
BISHOPS HEAD MD  1600   64 63  280/  9/ 10 1019.9R
PINEY POINT MD   1600          320/  9/  9   N/A
CAMBRIDGE MD     1600   69 60  320/  4/  6 1019.9R
LEWISETTA VA     1600   73 61              1020.2R
RAPPAHANNOCK LGT 1600          180/  4/  5 1021.3R
YORK RVR RNG VA  1600   69     260/  2/  2 1020.3R
YORKTOWN VA      1600   68 59  310/  7/  7 1020.5S
JAMESTOWN VA     1700   71 66  300/  4/  4 1019.9F
DOMINION TERM VA 1600   65     260/  2/  3 1021.1S
KIPTOPEKE VA     1600      62  270/  2/  2   N/A
CHES BAY BRIDGE  1600          250/  8/ 10   N/A
CAPE HENRY VA    1600   71     280/  8/ 10 1019.7R
CHESAPEAKE LGHT  1600   66     280/ 12/ 13 1021.8R
WILLOUBY STN VA  1600   68     230/  7/  8 1021.6R
S CRANEY ISL VA  1600          280/  6/  9 1021.0S
CAPE HENRY BUOY  1628      56                N/A     4/10   2/11
1ST LANDING BUOY 1700      61                N/A     2/ 5
CAPE CHARLES BUO 1626      55                N/A     4/11   3/11
OFFSHORE WE BUOY 1611      53                N/A     4/11   5/11
64NM E OF VA BCH 1650   58 62  230/  4/  6 1021.0F   6/11   5/11
DUCK PIER NC     1600   69 53  260/  8/ 11 1020.7R
44056 DUCK FRF   1611      58                N/A     5/11   3/11
OREGON INLET NC  1600   71 57  310/  9/ 12 1021.8R
HATTERAS NC      1600          270/  9/ 10   N/A
DIAMOND SHLS NC  1650   61 61  290/  4/  6 1022.5R   5/11   5/11
CAPE LOOKOUT NC  1700   71     240/  7/  9 1022.4F
$$



USA.gov is the U.S. government's official web portal to all federal, state and local government web resources and services.